User: anonymous   Login
Location: Cella
(44.7333°N, 10.5667°E)
Time: 00:35:12
(UTC+00:00)
Language:

Cosmos 2360 Rocket - Orbit

View from above orbital plane
View from above orbital plane
View from above satellite
View from above satellite

Ground track
Ground track

The orbit data is extracted from the following two-line orbital elements,

1 25407U 98045B   21125.22645328  .00000142  00000-0  96355-4 0  9996
2 25407  71.0106 301.3437 0008613 216.2171 143.8370 14.15839438176628
Epoch (UTC): 05 May 2021 05:26:05
Eccentricity: 0.0008613
inclination: 71.0106°
perigee height: 833 km
apogee height: 845 km
right ascension of ascending node: 301.3437°
argument of perigee: 216.2171°
revolutions per day: 14.15839438
mean anomaly at epoch: 143.8370°
orbit number at epoch: 17662

The dashed part of the orbit path shows where the satellite is in the earth's shadow,  

DLR